CCA936 EDDF-ZSPD

Flight info

Callsign CCA936
Flight time N/A
Altitude 37000
Route TOBAK8F/25C TOBAK N858 FEDZA Y172 MAG DCT BINKA N746 GORPI DCT KOLJA DCT EVONA DCT NETNA DCT TUKMA/N0484F390 P989 MEGAS/K0895F390 P989 OBIBA P997 AKUGI T635 SADER T580 ADMUR G117 XV R229 BA R104 NALED/K0898F410 R104 ABK A308 TR P982 DARNO/K0907S1250 A575 UDA Y345 POLHO W33 NUVPU W52 MUDAM/K0883S1220 G212 SOTMU W98 ELKUR W40 DOXAB/K0895S1250 W40 YQG/K0896S1220 W142 DALIM/K0898S1250 A593 DPX A470 DALNU W166 ZJ W167 SASAN SAS81A
Aircraft A359/H-SDE2E3GHIJ1J3J4J5LM1ORWXY/LB1D1

Departure

Time 2026-05-04 19:09
Airport Frankfurt Main Airport (EDDF)

Arrival

Time N/A
Airport Shanghai Pudong International Airport (ZSPD)
Time Latitude Longitude Altitude Speed Heading
2026-05-04 18:33 50.04763 8.57744 378 ft 0 kts 271°
2026-05-04 18:51 50.04764 8.57764 378 ft 2 kts 265°
2026-05-04 18:52 50.04765 8.57787 378 ft 2 kts 268°
2026-05-04 18:52 50.04765 8.57811 378 ft 2 kts 265°
2026-05-04 18:52 50.04767 8.57834 378 ft 2 kts 263°
2026-05-04 18:52 50.04769 8.57857 379 ft 2 kts 262°
2026-05-04 18:53 50.04771 8.57880 379 ft 2 kts 260°
2026-05-04 18:53 50.04774 8.57903 380 ft 2 kts 258°
2026-05-04 18:53 50.04777 8.57925 380 ft 2 kts 257°
2026-05-04 18:53 50.04781 8.57947 381 ft 2 kts 255°
2026-05-04 18:54 50.04784 8.57970 381 ft 2 kts 253°
2026-05-04 18:54 50.04789 8.57992 382 ft 2 kts 251°
2026-05-04 18:54 50.04794 8.58014 382 ft 1 kts 250°
2026-05-04 18:54 50.04795 8.58018 382 ft 0 kts 250°
2026-05-04 18:58 50.04795 8.58017 382 ft 1 kts 250°
2026-05-04 18:58 50.04785 8.57988 381 ft 4 kts 237°
2026-05-04 18:58 50.04749 8.57943 380 ft 8 kts 201°
2026-05-04 18:59 50.04687 8.57966 379 ft 10 kts 154°
2026-05-04 18:59 50.04617 8.58012 379 ft 11 kts 160°
2026-05-04 18:59 50.04571 8.58070 379 ft 9 kts 112°
2026-05-04 18:59 50.04578 8.58163 381 ft 8 kts 71°
2026-05-04 19:00 50.04598 8.58248 381 ft 8 kts 71°
2026-05-04 19:00 50.04619 8.58338 381 ft 9 kts 70°
2026-05-04 19:00 50.04648 8.58460 377 ft 12 kts 70°
2026-05-04 19:00 50.04641 8.58555 373 ft 10 kts 137°
2026-05-04 19:01 50.04608 8.58580 372 ft 0 kts 159°
2026-05-04 19:04 50.04592 8.58590 371 ft 4 kts 160°
2026-05-04 19:04 50.04547 8.58615 369 ft 9 kts 158°
2026-05-04 19:04 50.04498 8.58602 369 ft 6 kts 233°
2026-05-04 19:05 50.04484 8.58567 370 ft 1 kts 244°
2026-05-04 19:05 50.04483 8.58563 371 ft 0 kts 245°
2026-05-04 19:05 50.04482 8.58559 371 ft 1 kts 245°
2026-05-04 19:05 50.04481 8.58556 371 ft 0 kts 245°
2026-05-04 19:06 50.04478 8.58548 371 ft 1 kts 246°
2026-05-04 19:06 50.04478 8.58546 371 ft 0 kts 246°
2026-05-04 19:06 50.04475 8.58535 372 ft 2 kts 248°
2026-05-04 19:07 50.04473 8.58526 372 ft 0 kts 248°
2026-05-04 19:07 50.04469 8.58509 372 ft 3 kts 249°
2026-05-04 19:07 50.04467 8.58504 372 ft 0 kts 249°
2026-05-04 19:08 50.04467 8.58503 372 ft 2 kts 249°
2026-05-04 19:08 50.04390 8.58182 377 ft 68 kts 250°
2026-05-04 19:09 50.04140 8.57134 369 ft 136 kts 249°
2026-05-04 19:09 50.03757 8.55478 480 ft 179 kts 252°
2026-05-04 19:09 50.03336 8.53737 1321 ft 172 kts 251°
2026-05-04 19:09 50.02923 8.52089 2138 ft 165 kts 252°
2026-05-04 19:10 50.02695 8.50390 2665 ft 160 kts 274°
2026-05-04 19:10 50.02808 8.48683 3116 ft 161 kts 278°
2026-05-04 19:10 50.02960 8.46949 3545 ft 164 kts 278°
2026-05-04 19:10 50.03115 8.45163 3881 ft 173 kts 278°
2026-05-04 19:11 50.03283 8.43242 4186 ft 187 kts 282°
2026-05-04 19:11 50.03901 8.41415 4469 ft 203 kts 317°
2026-05-04 19:11 50.05059 8.40015 4818 ft 219 kts 323°
2026-05-04 19:11 50.06295 8.38611 5283 ft 230 kts 323°
2026-05-04 19:12 50.07620 8.37085 5685 ft 246 kts 322°
2026-05-04 19:12 50.10547 8.33700 6534 ft 278 kts 328°
2026-05-04 19:12 50.12398 8.32823 7146 ft 287 kts 359°
2026-05-04 19:13 50.14321 8.33365 7953 ft 287 kts 16°
2026-05-04 19:13 50.16233 8.34303 8583 ft 294 kts 17°
2026-05-04 19:13 50.18197 8.35289 9238 ft 299 kts 17°
2026-05-04 19:13 50.20188 8.36271 9935 ft 303 kts 17°
2026-05-04 19:14 50.22221 8.37251 10508 ft 311 kts 16°
2026-05-04 19:14 50.24329 8.38255 10857 ft 327 kts 16°
2026-05-04 19:14 50.26541 8.39306 11183 ft 343 kts 16°
2026-05-04 19:14 50.28834 8.40682 11485 ft 359 kts 27°
2026-05-04 19:15 50.30920 8.42898 11863 ft 371 kts 40°
2026-05-04 19:15 50.32881 8.45579 12463 ft 377 kts 42°
2026-05-04 19:15 50.34814 8.48327 13097 ft 380 kts 42°
2026-05-04 19:15 50.36785 8.51126 13723 ft 384 kts 42°
2026-05-04 19:16 50.38772 8.53922 14334 ft 387 kts 42°
2026-05-04 19:16 50.40778 8.56725 14909 ft 391 kts 41°
2026-05-04 19:16 50.42806 8.59556 15469 ft 395 kts 41°
2026-05-04 19:16 50.44882 8.62442 16034 ft 399 kts 41°
2026-05-04 19:17 50.46986 8.65242 16567 ft 403 kts 40°
2026-05-04 19:17 50.49139 8.68056 17108 ft 407 kts 40°
2026-05-04 19:17 50.51324 8.70920 17641 ft 410 kts 40°
2026-05-04 19:17 50.53508 8.73795 18170 ft 413 kts 40°
2026-05-04 19:18 50.55662 8.76796 18693 ft 416 kts 46°
2026-05-04 19:18 50.57558 8.80242 19213 ft 419 kts 54°
2026-05-04 19:18 50.59129 8.84083 19714 ft 421 kts 62°
2026-05-04 19:18 50.60544 8.88116 20198 ft 425 kts 63°
2026-05-04 19:19 50.61941 8.92218 20653 ft 429 kts 63°
2026-05-04 19:19 50.63345 8.96340 21123 ft 432 kts 63°
2026-05-04 19:19 50.64775 9.00505 21587 ft 435 kts 63°
2026-05-04 19:19 50.66228 9.04717 22035 ft 439 kts 62°
2026-05-04 19:20 50.67697 9.08962 22468 ft 443 kts 62°
2026-05-04 19:20 50.69163 9.13207 22913 ft 446 kts 62°
2026-05-04 19:20 50.70650 9.17521 23367 ft 449 kts 62°
2026-05-04 19:20 50.72109 9.21856 23798 ft 452 kts 64°
2026-05-04 19:21 50.73521 9.26294 24224 ft 454 kts 64°
2026-05-04 19:21 50.74909 9.30720 24653 ft 457 kts 64°
2026-05-04 19:21 50.76321 9.35238 25058 ft 460 kts 64°
2026-05-04 19:21 50.77741 9.39780 25433 ft 463 kts 64°
2026-05-04 19:22 50.79153 9.44296 25794 ft 466 kts 64°
2026-05-04 19:22 50.80585 9.48879 26152 ft 469 kts 64°
2026-05-04 19:22 50.82037 9.53534 26490 ft 472 kts 64°
2026-05-04 19:22 50.83483 9.58172 26836 ft 475 kts 64°
2026-05-04 19:23 50.84945 9.62870 27163 ft 477 kts 64°
2026-05-04 19:23 50.86411 9.67598 27466 ft 480 kts 65°
2026-05-04 19:23 50.87868 9.72323 27762 ft 483 kts 65°
2026-05-04 19:23 50.89321 9.77063 28070 ft 485 kts 65°
2026-05-04 19:24 50.90808 9.81911 28382 ft 487 kts 65°
2026-05-04 19:24 50.92268 9.86668 28638 ft 490 kts 65°
2026-05-04 19:24 50.93750 9.91507 28909 ft 492 kts 65°
2026-05-04 19:24 50.95242 9.96394 29177 ft 494 kts 65°
2026-05-04 19:25 50.96746 10.01340 29434 ft 496 kts 65°
2026-05-04 19:25 50.98236 10.06246 29699 ft 498 kts 65°
2026-05-04 19:25 50.99728 10.11161 29941 ft 500 kts 65°
2026-05-04 19:25 51.01253 10.16187 30154 ft 503 kts 65°
2026-05-04 19:26 51.02761 10.21163 30366 ft 505 kts 65°
2026-05-04 19:26 51.04266 10.26146 30630 ft 506 kts 65°
2026-05-04 19:26 51.05868 10.31143 30974 ft 506 kts 58°
2026-05-04 19:26 51.08011 10.35537 31297 ft 504 kts 43°
2026-05-04 19:27 51.10726 10.38943 31728 ft 498 kts 32°
2026-05-04 19:27 51.13573 10.41984 32099 ft 496 kts 31°
2026-05-04 19:27 51.16449 10.44975 32351 ft 497 kts 31°
2026-05-04 19:27 51.19367 10.48019 32610 ft 497 kts 31°
2026-05-04 19:28 51.22240 10.51046 32882 ft 497 kts 31°
2026-05-04 19:28 51.25097 10.54087 33181 ft 496 kts 31°
2026-05-04 19:28 51.27922 10.57113 33492 ft 495 kts 31°
2026-05-04 19:28 51.30805 10.60214 33758 ft 495 kts 31°
2026-05-04 19:29 51.33650 10.63282 33999 ft 495 kts 31°
2026-05-04 19:29 51.36483 10.66344 34254 ft 495 kts 33°
2026-05-04 19:29 51.39290 10.69540 34488 ft 495 kts 34°
2026-05-04 19:29 51.42026 10.72814 34732 ft 494 kts 35°
2026-05-04 19:30 51.44741 10.76168 34941 ft 494 kts 37°
2026-05-04 19:30 51.47432 10.79597 35106 ft 495 kts 37°
2026-05-04 19:30 51.50084 10.83002 35274 ft 494 kts 37°
2026-05-04 19:30 51.52783 10.86467 35454 ft 494 kts 37°
2026-05-04 19:31 51.55422 10.89849 35618 ft 493 kts 37°
2026-05-04 19:31 51.58099 10.93274 35783 ft 493 kts 37°
2026-05-04 19:31 51.60795 10.96722 35933 ft 492 kts 37°
2026-05-04 19:31 51.63461 11.00132 36068 ft 492 kts 37°
2026-05-04 19:32 51.66145 11.03570 36177 ft 493 kts 37°
2026-05-04 19:32 51.71490 11.10431 36341 ft 496 kts 37°
2026-05-04 19:33 51.76871 11.17360 36506 ft 498 kts 37°
2026-05-04 19:33 51.82260 11.24320 36699 ft 498 kts 36°
2026-05-04 19:33 51.84946 11.27796 36801 ft 499 kts 36°
2026-05-04 19:34 51.87654 11.31307 36908 ft 499 kts 36°
2026-05-04 19:34 51.93082 11.38363 36908 ft 500 kts 36°
2026-05-04 19:35 51.98455 11.45369 36915 ft 500 kts 36°
2026-05-04 19:35 52.03854 11.52430 36921 ft 500 kts 36°
2026-05-04 19:36 52.09269 11.59535 36924 ft 501 kts 36°
2026-05-04 19:36 52.14655 11.66598 36941 ft 500 kts 37°
2026-05-04 19:37 52.20041 11.73706 37040 ft 500 kts 37°
2026-05-04 19:37 52.22727 11.77270 37416 ft 493 kts 37°
2026-05-04 19:37 52.25368 11.80777 37208 ft 490 kts 37°
2026-05-04 19:37 52.27992 11.84262 36961 ft 494 kts 37°
2026-05-04 19:38 52.30645 11.87790 36942 ft 497 kts 37°
2026-05-04 19:38 52.36008 11.94938 36923 ft 498 kts 37°
2026-05-04 19:39 52.41364 12.02107 36921 ft 498 kts 37°
2026-05-04 19:39 52.46717 12.09287 36925 ft 499 kts 37°
2026-05-04 19:40 52.52059 12.16482 36916 ft 499 kts 37°
2026-05-04 19:40 52.57378 12.23665 36926 ft 499 kts 37°
2026-05-04 19:41 52.62719 12.30903 36930 ft 499 kts 37°
2026-05-04 19:41 52.68050 12.38150 36924 ft 500 kts 37°
2026-05-04 19:42 52.73407 12.45457 36934 ft 500 kts 36°
2026-05-04 19:42 52.78710 12.52712 36914 ft 500 kts 37°
2026-05-04 19:43 52.84074 12.60074 36919 ft 501 kts 37°
2026-05-04 19:43 52.89400 12.67412 36923 ft 501 kts 37°
2026-05-04 19:44 52.94707 12.74782 36932 ft 501 kts 37°
2026-05-04 19:44 53.00030 12.82184 36927 ft 501 kts 37°
2026-05-04 19:45 53.05357 12.89606 36932 ft 499 kts 37°
2026-05-04 19:45 53.10648 12.96992 36933 ft 500 kts 37°
2026-05-04 19:46 53.15961 13.04391 36930 ft 501 kts 37°
2026-05-04 19:46 53.21271 13.11821 36933 ft 501 kts 37°
2026-05-04 19:47 53.26600 13.19324 36936 ft 501 kts 37°
2026-05-04 19:47 53.31891 13.26811 36935 ft 501 kts 37°
2026-05-04 19:48 53.37165 13.34292 36939 ft 500 kts 37°
2026-05-04 19:48 53.42443 13.41810 36935 ft 500 kts 37°
2026-05-04 19:49 53.47729 13.49366 36936 ft 498 kts 37°
2026-05-04 19:49 53.52954 13.56856 36944 ft 498 kts 37°
2026-05-04 19:50 53.58220 13.64433 36942 ft 498 kts 37°
2026-05-04 19:50 53.63457 13.72016 36929 ft 499 kts 38°
2026-05-04 19:51 53.68707 13.79650 36930 ft 500 kts 38°
2026-05-04 19:51 53.73925 13.87243 36938 ft 499 kts 38°
2026-05-04 19:52 53.79152 13.94870 36938 ft 499 kts 38°
2026-05-04 19:52 53.84390 14.02533 36934 ft 499 kts 38°
2026-05-04 19:53 53.89632 14.10234 36923 ft 498 kts 38°
2026-05-04 19:53 53.94828 14.17893 36930 ft 499 kts 38°
2026-05-04 19:54 54.00063 14.25631 36949 ft 499 kts 38°
2026-05-04 19:54 54.05263 14.33345 36931 ft 499 kts 38°
2026-05-04 19:55 54.10473 14.41100 36944 ft 500 kts 38°
2026-05-04 19:55 54.15705 14.48879 36928 ft 500 kts 38°
2026-05-04 19:56 54.20913 14.56662 36934 ft 501 kts 37°
2026-05-04 19:56 54.26137 14.64509 36938 ft 500 kts 38°
2026-05-04 19:57 54.31311 14.72345 36923 ft 500 kts 39°
2026-05-04 19:57 54.36495 14.80223 36921 ft 500 kts 38°
2026-05-04 19:58 54.41695 14.88138 36905 ft 501 kts 38°
2026-05-04 19:58 54.46869 14.96032 36917 ft 501 kts 38°
2026-05-04 19:59 54.52043 15.03955 36924 ft 501 kts 38°
2026-05-04 19:59 54.57225 15.11916 36925 ft 502 kts 38°
2026-05-04 20:00 54.62427 15.19937 36922 ft 502 kts 38°
2026-05-04 20:00 54.67617 15.27965 36913 ft 502 kts 38°
2026-05-04 20:01 54.72774 15.35970 36911 ft 502 kts 38°
2026-05-04 20:01 54.77976 15.44071 36912 ft 503 kts 38°
2026-05-04 20:02 54.83122 15.52114 36893 ft 503 kts 38°
2026-05-04 20:02 54.88321 15.60217 36918 ft 503 kts 37°
2026-05-04 20:03 54.93823 15.67623 36899 ft 500 kts 31°
2026-05-04 20:03 54.99666 15.74043 36905 ft 499 kts 27°
2026-05-04 20:04 55.05601 15.80193 36895 ft 499 kts 27°
2026-05-04 20:04 55.11548 15.86378 36892 ft 498 kts 27°
2026-05-04 20:05 55.17437 15.92522 36901 ft 497 kts 27°
2026-05-04 20:05 55.23357 15.98739 36907 ft 498 kts 27°
2026-05-04 20:06 55.29258 16.04972 36911 ft 497 kts 27°
2026-05-04 20:06 55.35139 16.11212 36893 ft 496 kts 27°
2026-05-04 20:07 55.41050 16.17504 36895 ft 497 kts 27°
2026-05-04 20:07 55.46905 16.23762 36887 ft 497 kts 27°
2026-05-04 20:08 55.52779 16.30060 36880 ft 496 kts 27°
2026-05-04 20:08 55.58644 16.36370 36882 ft 496 kts 27°
2026-05-04 20:09 55.64493 16.42686 36873 ft 495 kts 27°
2026-05-04 20:09 55.70353 16.49036 36871 ft 494 kts 27°
2026-05-04 20:10 55.76191 16.55381 36861 ft 494 kts 27°
2026-05-04 20:10 55.82017 16.61738 36864 ft 494 kts 27°
2026-05-04 20:11 55.87855 16.68133 36848 ft 494 kts 28°
2026-05-04 20:11 55.93608 16.74775 36848 ft 496 kts 33°
2026-05-04 20:12 55.98925 16.82538 36838 ft 498 kts 40°
2026-05-04 20:12 56.03697 16.91483 36843 ft 501 kts 48°
2026-05-04 20:13 56.07893 17.01435 36841 ft 504 kts 52°
2026-05-04 20:13 56.11888 17.11619 36842 ft 504 kts 53°
2026-05-04 20:14 56.15927 17.21881 36844 ft 505 kts 52°
2026-05-04 20:14 56.19938 17.32103 36846 ft 505 kts 52°
2026-05-04 20:15 56.23960 17.42408 36840 ft 505 kts 52°
2026-05-04 20:15 56.27966 17.52716 36836 ft 505 kts 52°
2026-05-04 20:16 56.31947 17.63005 36838 ft 505 kts 52°
2026-05-04 20:16 56.35934 17.73371 36833 ft 505 kts 53°
2026-05-04 20:17 56.39895 17.83725 36830 ft 506 kts 53°
2026-05-04 20:17 56.43877 17.94159 36821 ft 506 kts 53°
2026-05-04 20:18 56.47847 18.04600 36818 ft 506 kts 53°
2026-05-04 20:18 56.51811 18.15065 36811 ft 506 kts 53°
2026-05-04 20:19 56.55762 18.25540 36805 ft 506 kts 53°
2026-05-04 20:19 56.59704 18.36035 36807 ft 506 kts 53°
2026-05-04 20:20 56.63627 18.46533 36801 ft 506 kts 53°
2026-05-04 20:20 56.67572 18.57128 36803 ft 507 kts 53°
2026-05-04 20:21 56.71480 18.67677 36801 ft 507 kts 54°
2026-05-04 20:21 56.73439 18.72993 36908 ft 501 kts 54°
2026-05-04 20:21 56.77272 18.83436 37404 ft 495 kts 54°
2026-05-04 20:22 56.79173 18.88619 37653 ft 492 kts 54°
2026-05-04 20:22 56.81062 18.93776 37897 ft 489 kts 54°
2026-05-04 20:22 56.82930 18.98888 38145 ft 486 kts 54°
2026-05-04 20:22 56.84803 19.04021 38399 ft 482 kts 54°
2026-05-04 20:23 56.86633 19.09049 38642 ft 479 kts 54°
2026-05-04 20:23 56.88459 19.14074 38773 ft 479 kts 54°
2026-05-04 20:23 56.92139 19.24230 38785 ft 483 kts 54°
2026-05-04 20:24 56.95839 19.34488 38782 ft 488 kts 54°
2026-05-04 20:24 56.99578 19.44898 38779 ft 492 kts 54°
2026-05-04 20:25 57.03343 19.55426 38775 ft 496 kts 54°
2026-05-04 20:25 57.07107 19.65987 38772 ft 500 kts 55°
2026-05-04 20:26 57.10906 19.76714 38767 ft 504 kts 55°
2026-05-04 20:26 57.14712 19.87455 38769 ft 507 kts 56°
2026-05-04 20:27 57.18169 19.98782 38772 ft 511 kts 62°
2026-05-04 20:27 57.21274 20.10563 38772 ft 513 kts 63°
2026-05-04 20:28 57.24329 20.22342 38772 ft 513 kts 63°
2026-05-04 20:28 57.27393 20.34159 38776 ft 512 kts 63°
2026-05-04 20:29 57.30453 20.45996 38769 ft 512 kts 63°
2026-05-04 20:29 57.33504 20.57842 38764 ft 512 kts 63°
2026-05-04 20:30 57.36539 20.69698 38764 ft 512 kts 64°
2026-05-04 20:30 57.39561 20.81591 38773 ft 513 kts 64°
2026-05-04 20:31 57.42569 20.93476 38768 ft 513 kts 64°
2026-05-04 20:31 57.45575 21.05406 38764 ft 513 kts 64°
2026-05-04 20:32 57.48597 21.17460 38765 ft 515 kts 64°
2026-05-04 20:32 57.51579 21.29421 38779 ft 515 kts 64°
2026-05-04 20:33 57.54573 21.41492 38770 ft 515 kts 64°
2026-05-04 20:33 57.57555 21.53586 38778 ft 515 kts 64°
2026-05-04 20:34 57.60519 21.65668 38775 ft 514 kts 64°
2026-05-04 20:34 57.63451 21.77713 38775 ft 515 kts 64°
2026-05-04 20:35 57.66394 21.89864 38777 ft 515 kts 64°
2026-05-04 20:35 57.69321 22.02002 38773 ft 516 kts 64°
2026-05-04 20:36 57.72241 22.14168 38773 ft 516 kts 64°
2026-05-04 20:36 57.75160 22.26395 38764 ft 516 kts 64°
2026-05-04 20:37 57.78076 22.38683 38770 ft 517 kts 64°
2026-05-04 20:37 57.80960 22.50896 38764 ft 518 kts 64°
2026-05-04 20:38 57.83863 22.63246 38763 ft 518 kts 64°
2026-05-04 20:38 57.86733 22.75553 38769 ft 518 kts 65°
2026-05-04 20:39 57.89530 22.87986 38775 ft 517 kts 66°
2026-05-04 20:39 57.92216 23.00401 38779 ft 517 kts 67°
2026-05-04 20:40 57.94913 23.12894 38778 ft 517 kts 66°
2026-05-04 20:40 57.97618 23.25424 38779 ft 517 kts 66°
2026-05-04 20:41 58.00296 23.37887 38784 ft 517 kts 66°
2026-05-04 20:41 58.02985 23.50468 38770 ft 517 kts 66°
2026-05-04 20:42 58.05644 23.62986 38771 ft 517 kts 66°
2026-05-04 20:42 58.08284 23.75519 38768 ft 518 kts 68°
2026-05-04 20:43 58.10928 23.88128 38778 ft 518 kts 67°
2026-05-04 20:43 58.13596 24.00780 38762 ft 519 kts 67°
2026-05-04 20:44 58.16222 24.13377 38769 ft 520 kts 67°
2026-05-04 20:44 58.18849 24.26110 38770 ft 520 kts 67°
2026-05-04 20:45 58.21450 24.38822 38757 ft 519 kts 67°
2026-05-04 20:45 58.24033 24.51521 38764 ft 520 kts 67°
2026-05-04 20:46 58.26612 24.64285 38757 ft 520 kts 67°
2026-05-04 20:46 58.29178 24.77096 38758 ft 520 kts 68°
2026-05-04 20:47 58.31728 24.89904 38754 ft 520 kts 68°
2026-05-04 20:47 58.34259 25.02685 38756 ft 520 kts 68°
2026-05-04 20:48 58.36789 25.15539 38749 ft 520 kts 68°
2026-05-04 20:48 58.39310 25.28430 38744 ft 521 kts 68°
2026-05-04 20:49 58.41810 25.41293 38738 ft 520 kts 69°
2026-05-04 20:49 58.44293 25.54150 38737 ft 520 kts 68°
2026-05-04 20:50 58.46758 25.67007 38730 ft 519 kts 69°
2026-05-04 20:50 58.49215 25.79933 38739 ft 520 kts 70°
2026-05-04 20:51 58.51658 25.92863 38736 ft 520 kts 69°
2026-05-04 20:51 58.54108 26.05908 38729 ft 521 kts 69°
2026-05-04 20:52 58.56525 26.18855 38738 ft 521 kts 69°
2026-05-04 20:52 58.58941 26.31871 38733 ft 521 kts 69°
2026-05-04 20:53 58.61342 26.44906 38731 ft 520 kts 69°
2026-05-04 20:53 58.63719 26.57892 38728 ft 519 kts 69°
2026-05-04 20:54 58.66088 26.70919 38727 ft 518 kts 70°
2026-05-04 20:54 58.68438 26.83943 38733 ft 518 kts 70°
2026-05-04 20:55 58.70768 26.96926 38720 ft 517 kts 70°
2026-05-04 20:55 58.73121 27.10006 38740 ft 517 kts 69°
2026-05-04 20:56 58.75935 27.22631 38719 ft 516 kts 63°
2026-05-04 20:56 58.79110 27.34914 38724 ft 516 kts 62°
2026-05-04 20:57 58.82275 27.47296 38719 ft 516 kts 63°
2026-05-04 20:57 58.85395 27.59705 38706 ft 517 kts 63°
2026-05-04 20:58 58.88519 27.72186 38703 ft 518 kts 64°
2026-05-04 20:58 58.91633 27.84696 38702 ft 518 kts 64°
2026-05-04 20:59 58.94729 27.97186 38696 ft 518 kts 64°
2026-05-04 20:59 58.97810 28.09670 38701 ft 518 kts 64°
2026-05-04 21:00 59.00887 28.22211 38714 ft 518 kts 64°
2026-05-04 21:00 59.03966 28.34815 38711 ft 518 kts 64°
2026-05-04 21:01 59.07019 28.47388 38716 ft 518 kts 64°
2026-05-04 21:01 59.10075 28.60029 38691 ft 519 kts 64°
2026-05-04 21:02 59.13145 28.72702 38707 ft 520 kts 65°
2026-05-04 21:02 59.16177 28.85407 38696 ft 521 kts 65°
2026-05-04 21:03 59.19198 28.98199 38708 ft 522 kts 65°
2026-05-04 21:03 59.22210 29.10997 38704 ft 522 kts 65°
2026-05-04 21:04 59.25217 29.23846 38699 ft 523 kts 65°
2026-05-04 21:04 59.28204 29.36672 38704 ft 522 kts 65°
2026-05-04 21:05 59.31201 29.49619 38709 ft 523 kts 65°
2026-05-04 21:05 59.34169 29.62514 38690 ft 523 kts 65°
2026-05-04 21:06 59.37138 29.75515 38694 ft 523 kts 66°
2026-05-04 21:06 59.40079 29.88477 38692 ft 523 kts 66°
2026-05-04 21:07 59.43007 30.01452 38689 ft 523 kts 66°
2026-05-04 21:07 59.45917 30.14417 38685 ft 523 kts 66°
2026-05-04 21:08 59.48837 30.27499 38677 ft 523 kts 66°
2026-05-04 21:08 59.51729 30.40530 38678 ft 523 kts 66°
2026-05-04 21:09 59.54623 30.53653 38682 ft 524 kts 66°
2026-05-04 21:09 59.57493 30.66748 38665 ft 525 kts 67°
2026-05-04 21:10 59.60359 30.79923 38667 ft 525 kts 67°
2026-05-04 21:10 59.63206 30.93073 38668 ft 524 kts 67°
2026-05-04 21:11 59.66064 31.06373 38673 ft 525 kts 68°
2026-05-04 21:11 59.68483 31.19914 38664 ft 524 kts 75°
2026-05-04 21:12 59.70216 31.33777 38655 ft 524 kts 78°
2026-05-04 21:12 59.71825 31.47817 38639 ft 525 kts 78°
2026-05-04 21:13 59.73440 31.61894 38639 ft 526 kts 77°
2026-05-04 21:13 59.75049 31.75905 38648 ft 526 kts 78°
2026-05-04 21:14 59.76653 31.89997 38627 ft 526 kts 79°
2026-05-04 21:14 59.78233 32.04074 38625 ft 526 kts 78°
2026-05-04 21:15 59.79800 32.18208 38633 ft 525 kts 78°
2026-05-04 21:15 59.81363 32.32312 38624 ft 525 kts 77°
2026-05-04 21:16 59.83252 32.46174 38644 ft 525 kts 74°
2026-05-04 21:16 59.85276 32.60070 38638 ft 525 kts 74°
2026-05-04 21:17 59.87283 32.74009 38632 ft 524 kts 75°
2026-05-04 21:17 59.89257 32.87893 38630 ft 525 kts 75°
2026-05-04 21:18 59.91222 33.01856 38627 ft 525 kts 75°
2026-05-04 21:18 59.92808 33.15958 38606 ft 524 kts 82°
2026-05-04 21:19 59.93577 33.30247 38620 ft 522 kts 89°
2026-05-04 21:19 59.93773 33.44620 38618 ft 520 kts 90°
2026-05-04 21:20 59.93922 33.59001 38604 ft 519 kts 90°
2026-05-04 21:20 59.94073 33.73338 38610 ft 518 kts 91°
2026-05-04 21:21 59.94219 33.87604 38590 ft 518 kts 91°
2026-05-04 21:21 59.94352 34.01882 38584 ft 517 kts 91°
2026-05-04 21:22 59.94467 34.16169 38613 ft 517 kts 91°
2026-05-04 21:22 59.94568 34.30365 38626 ft 517 kts 91°
2026-05-04 21:23 59.94656 34.44633 38639 ft 518 kts 91°
2026-05-04 21:23 59.94725 34.58932 38641 ft 519 kts 90°
2026-05-04 21:24 59.94787 34.73294 38634 ft 518 kts 91°
2026-05-04 21:24 59.94832 34.87492 38629 ft 517 kts 91°
2026-05-04 21:25 59.94868 35.01817 38631 ft 517 kts 91°
2026-05-04 21:25 59.94879 35.16059 38602 ft 517 kts 91°
2026-05-04 21:26 59.95197 35.30294 38606 ft 519 kts 85°
2026-05-04 21:26 59.96306 35.44482 38607 ft 520 kts 77°
2026-05-04 21:27 59.97939 35.58525 38587 ft 521 kts 76°
2026-05-04 21:27 59.99585 35.72494 38579 ft 521 kts 77°
2026-05-04 21:28 60.01203 35.86573 38580 ft 521 kts 77°
2026-05-04 21:28 60.02790 36.00611 38590 ft 521 kts 77°
2026-05-04 21:29 60.04360 36.14636 38598 ft 520 kts 77°
2026-05-04 21:29 60.05925 36.28744 38595 ft 520 kts 77°
2026-05-04 21:30 60.07472 36.42830 38590 ft 521 kts 77°
2026-05-04 21:30 60.09003 36.56889 38597 ft 520 kts 77°
2026-05-04 21:31 60.11289 36.78087 38604 ft 519 kts 78°
2026-05-04 21:32 60.12777 36.92201 38607 ft 519 kts 78°
2026-05-04 21:32 60.14234 37.06235 38610 ft 518 kts 78°
2026-05-04 21:33 60.15688 37.20331 38615 ft 518 kts 78°
2026-05-04 21:33 60.17125 37.34434 38610 ft 518 kts 78°
2026-05-04 21:34 60.18549 37.48566 38614 ft 518 kts 78°
2026-05-04 21:34 60.19947 37.62609 38607 ft 518 kts 78°
2026-05-04 21:35 60.21339 37.76769 38603 ft 518 kts 79°
2026-05-04 21:35 60.22719 37.90955 38592 ft 518 kts 79°
2026-05-04 21:36 60.24086 38.05134 38611 ft 518 kts 79°
2026-05-04 21:36 60.25428 38.19243 38585 ft 517 kts 79°
2026-05-04 21:37 60.26758 38.33394 38599 ft 517 kts 79°
2026-05-04 21:37 60.28082 38.47607 38593 ft 517 kts 79°
2026-05-04 21:38 60.29396 38.61783 38590 ft 517 kts 79°
2026-05-04 21:38 60.30689 38.75937 38604 ft 516 kts 79°
2026-05-04 21:39 60.31967 38.90100 38601 ft 516 kts 79°
2026-05-04 21:39 60.33236 39.04305 38614 ft 516 kts 79°
2026-05-04 21:40 60.34483 39.18447 38631 ft 515 kts 79°
2026-05-04 21:40 60.35713 39.32603 38632 ft 515 kts 79°
2026-05-04 21:41 60.36933 39.46788 38630 ft 515 kts 79°
2026-05-04 21:41 60.38136 39.60982 38634 ft 515 kts 79°
2026-05-04 21:42 60.39319 39.75135 38622 ft 515 kts 81°
2026-05-04 21:42 60.40489 39.89345 38631 ft 515 kts 80°
2026-05-04 21:43 60.41651 40.03624 38619 ft 514 kts 80°
2026-05-04 21:43 60.42796 40.17866 38599 ft 514 kts 80°
2026-05-04 21:44 60.43916 40.31998 38591 ft 514 kts 80°
2026-05-04 21:44 60.45034 40.46313 38608 ft 514 kts 80°
2026-05-04 21:45 60.46125 40.60458 38600 ft 514 kts 80°
2026-05-04 21:45 60.47212 40.74730 38618 ft 513 kts 81°
2026-05-04 21:46 60.48280 40.88992 38600 ft 513 kts 81°
2026-05-04 21:46 60.49322 41.03231 38602 ft 512 kts 81°
2026-05-04 21:47 60.50311 41.17395 38610 ft 512 kts 81°
2026-05-04 21:47 60.51295 41.31633 38603 ft 512 kts 81°
2026-05-04 21:48 60.52275 41.45937 38607 ft 512 kts 81°
2026-05-04 21:48 60.53233 41.60104 38611 ft 512 kts 81°
2026-05-04 21:49 60.54188 41.74454 38616 ft 512 kts 82°
2026-05-04 21:49 60.55120 41.88698 38624 ft 511 kts 82°
2026-05-04 21:50 60.56041 42.02923 38631 ft 511 kts 82°
2026-05-04 21:50 60.56934 42.17144 38629 ft 511 kts 82°
2026-05-04 21:51 60.57805 42.31470 38631 ft 511 kts 82°
2026-05-04 21:51 60.58666 42.45754 38640 ft 511 kts 82°
2026-05-04 21:52 60.59513 42.60023 38637 ft 511 kts 82°
2026-05-04 21:52 60.60352 42.74328 38642 ft 511 kts 83°
2026-05-04 21:53 60.61172 42.88629 38648 ft 511 kts 83°
2026-05-04 21:53 60.61978 43.02935 38657 ft 512 kts 83°
2026-05-04 21:54 60.62769 43.17221 38649 ft 511 kts 83°
2026-05-04 21:54 60.63546 43.31538 38662 ft 512 kts 83°
2026-05-04 21:55 60.64313 43.45941 38668 ft 510 kts 83°
2026-05-04 21:55 60.65065 43.60243 38651 ft 511 kts 82°
2026-05-04 21:56 60.65797 43.74511 38671 ft 512 kts 84°
2026-05-04 21:56 60.66509 43.88881 38670 ft 511 kts 83°
2026-05-04 21:57 60.67211 44.03213 38661 ft 511 kts 83°
2026-05-04 21:57 60.67914 44.17628 38656 ft 511 kts 83°
2026-05-04 21:58 60.68603 44.32021 38666 ft 511 kts 83°
2026-05-04 21:58 60.69270 44.46288 38648 ft 511 kts 83°
2026-05-04 21:59 60.69928 44.60625 38658 ft 511 kts 83°
2026-05-04 21:59 60.70573 44.75046 38680 ft 510 kts 84°
2026-05-04 22:00 60.71202 44.89415 38686 ft 510 kts 84°
2026-05-04 22:00 60.71817 45.03753 38691 ft 510 kts 84°
2026-05-04 22:01 60.72409 45.18118 38689 ft 511 kts 84°
2026-05-04 22:01 60.72994 45.32515 38710 ft 511 kts 84°
2026-05-04 22:02 60.73559 45.46869 38701 ft 510 kts 84°
2026-05-04 22:02 60.74100 45.61200 38707 ft 509 kts 84°
2026-05-04 22:03 60.74640 45.75592 38711 ft 508 kts 84°
2026-05-04 22:03 60.75167 45.89954 38712 ft 509 kts 84°
2026-05-04 22:04 60.75684 46.04305 38724 ft 509 kts 84°
2026-05-04 22:04 60.76188 46.18623 38732 ft 509 kts 84°
2026-05-04 22:05 60.76669 46.33035 38741 ft 508 kts 84°
2026-05-04 22:05 60.77053 46.47326 38738 ft 508 kts 85°
2026-05-04 22:06 60.77406 46.61684 38744 ft 507 kts 85°
2026-05-04 22:06 60.77754 46.76035 38740 ft 507 kts 86°
2026-05-04 22:07 60.78097 46.90400 38750 ft 507 kts 85°
2026-05-04 22:07 60.78433 47.04679 38743 ft 507 kts 85°
2026-05-04 22:08 60.78762 47.19074 38759 ft 507 kts 85°
2026-05-04 22:08 60.79066 47.33416 38758 ft 508 kts 85°
2026-05-04 22:09 60.79336 47.47757 38768 ft 508 kts 85°
2026-05-04 22:09 60.79602 47.62193 38769 ft 508 kts 85°
2026-05-04 22:10 60.79690 47.66973 38763 ft 508 kts 86°